This demonstration page uses our WeatherBlox Daily Observations layout. Learn more.

Left ArrowRight Arrow

41.55636, -103.73856

Hourly Observations for October 10, 2018

Temp ( °F °C ) Dew Point ( °F °C ) Humidity (%) Winds ( mph kmh ) Pressure ( in mb ) Visibility ( mi km ) Precip ( " mm )
12:58 am 00:58 Cloudy 30 -1.2 28 -2.4 92 92 N 13 20 30.08 1019 10 16 N/A
1:58 am 01:58 Mostly Cloudy 29 -1.7 27 -2.7 93 93 NNE 13 20 30.07 1018 10 16 N/A
2:58 am 02:58 Cloudy 29 -1.6 27 -2.6 93 93 N 10 17 30.08 1019 10 16 N/A
3:58 am 03:58 Cloudy 29 -1.6 27 -3 90 90 NNE 12 19 30.08 1019 10 16 N/A
7:58 am 07:58 Cloudy 28 -2.2 26 -3.5 91 91 NNE 13 20 30.11 1020 10 16 N/A
8:58 am 08:58 Mostly Cloudy 29 -1.8 24 -4.2 84 84 NNE 14 22 30.12 1020 10 16 N/A
9:58 am 09:58 Cloudy 31 -0.4 25 -3.7 79 79 NNE 10 17 30.11 1020 10 16 N/A
10:58 am 10:58 Cloudy 31 -0.4 25 -3.8 78 78 N 5 7 30.12 1020 10 16 N/A
11:58 am 11:58 Cloudy 33 0.5 26 -3.5 75 75 NNW 8 13 30.11 1020 10 16 N/A
12:58 pm 12:58 Cloudy with Light Snow 33 0.6 26 -3.3 75 75 N 9 15 30.12 1020 10 16 N/A
1:58 pm 13:58 Cloudy with Light Snow 32 undefined 28 -2.1 86 86 N 8 13 30.12 1020 10 16 N/A
2:58 pm 14:58 Cloudy with Light Snow 32 -0.2 30 -1.3 92 92 NNE 8 13 30.14 1021 2 4 0.02 0.51
3:58 pm 15:58 Mostly Cloudy with Light Snow 32 0.1 30 -1 92 92 N 8 13 30.15 1021 7 11 0.01 0.25
4:58 pm 16:58 Cloudy with Light Rain/Snow 31 -0.3 30 -1.1 94 94 NE 6 9 30.18 1022 6 10 N/A
5:58 pm 17:58 Cloudy 31 -0.3 29 -1.5 92 92 NE 6 9 30.18 1022 10 16 N/A
6:58 pm 18:58 Cloudy 31 -0.5 29 -1.6 92 92 NNE 5 7 30.20 1023 10 16 N/A
7:58 pm 19:58 Cloudy 31 -0.7 29 -1.4 95 95 N N/A 30.24 1024 10 16 N/A
8:58 pm 20:58 Cloudy 31 -0.8 29 -1.5 95 95 N N/A 30.23 1024 10 16 N/A
9:58 pm 21:58 Cloudy 31 -0.7 29 -1.5 94 94 N N/A 30.23 1024 10 16 N/A
10:58 pm 22:58 Cloudy 30 -1 29 -1.6 96 96 N N/A 30.23 1024 10 16 N/A
11:58 pm 23:58 Mostly Cloudy 29 -1.5 29 -1.8 98 98 SW 6 9 30.23 1024 10 16 N/A

Powered by AerisWeather